Regional Weather Roundup
Issued by NWS Little Rock, AR

Home | Current Version | Previous Version | Text Only | Print | Product List | Glossary Off
Versions: 1 2 3 4 5 6 7 8 9 10 11 12 13 14 15 16 17 18 19 20 21 22 23 24 25 26 27 28 29 30 31 32 33 34 35 36 37 38 39 40 41 42 43 44 45 46 47 48 49 50

798
ASUS44 KLZK 230012
RWRLZK

WEATHER ROUNDUP FOR ARKANSAS
NATIONAL WEATHER SERVICE LITTLE ROCK AR
700 PM CDT SAT JUL 22 2017

NOTE: "FAIR" INDICATES FEW OR NO CLOUDS BELOW 12,000 FEET WITH NO
SIGNIFICANT WEATHER AND/OR OBSTRUCTIONS TO VISIBILITY.

ARZ001-003-010-029-230100-
NORTHWEST ARKANSAS

CITY           SKY/WX    TMP DP  RH WIND       PRES   REMARKS
FAYETTEVILLE   SUNNY     90  71  53 S8        29.90F HX  96
6HR MIN TEMP:  90; 6HR MAX TEMP:  93;

FORT SMITH     SUNNY     97  70  41 S5        29.84F HX 103
6HR MIN TEMP:  94; 6HR MAX TEMP:  99;

HARRISON       SUNNY     89  71  55 S6        29.91S HX  95
6HR MIN TEMP:  89; 6HR MAX TEMP:  94;

BENTONVILLE    SUNNY     93  70  46 SW6       29.91F HX  99
6HR MIN TEMP:  91; 6HR MAX TEMP:  95;

ROGERS         SUNNY     93  73  52 SW9       29.90F HX 102
6HR MIN TEMP:  91; 6HR MAX TEMP:  96;

SILOAM SPGS    SUNNY     93  70  46 SW12      29.88F HX  99
6HR MIN TEMP:  93; 6HR MAX TEMP:  97;

HIGHFILL       SUNNY     94  71  47 S9        29.89F HX 101
6HR MIN TEMP:  94; 6HR MAX TEMP:  98;

SPRINGDALE     SUNNY     93  70  46 SW9G15    29.92F HX  99
$$

ARZ004-005-016-230100-
NORTH CENTRAL ARKANSAS

CITY           SKY/WX    TMP DP  RH WIND       PRES   REMARKS
BATESVILLE     SUNNY     93  73  52 S7        29.87R HX 102
6HR MIN TEMP:  93; 6HR MAX TEMP:  99;

FLIPPIN        SUNNY     95  66  38 SW6       29.86S HX  98
6HR MIN TEMP:  95; 6HR MAX TEMP:  99;

MTN HOME       SUNNY     91  72  53 SW5       29.87F HX  98
6HR MIN TEMP:  91; 6HR MAX TEMP:  96;

$$

ARZ040-041-230100-
WEST CENTRAL ARKANSAS

CITY           SKY/WX    TMP DP  RH WIND       PRES   REMARKS
MENA           SUNNY     95  70  43 SW3       29.92S HX 101
MOUNT IDA      SUNNY     92  67  43 VRB5      29.88S HX  95
6HR MIN TEMP:  92; 6HR MAX TEMP:  97;

$$

ARZ009-017-025-026-028-230100-
NORTHEAST ARKANSAS

CITY           SKY/WX    TMP DP  RH WIND       PRES   REMARKS
JONESBORO      SUNNY     93  77  59 SW12      29.86S HX 107
6HR MIN TEMP:  93; 6HR MAX TEMP:  97;

WALNUT RIDGE   SUNNY     93  75  55 CALM      29.85S HX 104
6HR MIN TEMP:  93; 6HR MAX TEMP:  99;

BLYTHEVILLE    SUNNY     93  74  53 SW6       29.86F HX 103
6HR MIN TEMP:  92; 6HR MAX TEMP:  96;

$$

ARZ022-023-033-042-044-230100-
CENTRAL ARKANSAS

CITY           SKY/WX    TMP DP  RH WIND       PRES   REMARKS
LITTLE ROCK    MOSUNNY   92  76  59 S9        29.86F HX 104
6HR MIN TEMP:  92; 6HR MAX TEMP:  96;

N LITTLE ROCK    N/A     93  74  54 S6        29.85F HX 102
6HR MIN TEMP:  91; 6HR MAX TEMP:  95;

CONWAY           N/A     95  75  52 S9        29.84S HX 107
SEARCY         SUNNY     92  79  65 S6        29.87S HX 108
6HR MIN TEMP:  92; 6HR MAX TEMP:  97;

HOT SPRINGS    SUNNY     93  73  52 S7        29.88F HX 102
6HR MIN TEMP:  93; 6HR MAX TEMP:  97;

RUSSELLVILLE   SUNNY     94  74  52 CALM      29.85F HX 104
6HR MIN TEMP:  93; 6HR MAX TEMP:  96;

CLINTON        FAIR      93  75  55 SW7       29.87S HX 104
$$

ARZ036-230100-
EAST ARKANSAS

CITY           SKY/WX    TMP DP  RH WIND       PRES   REMARKS
WEST MEMPHIS   SUNNY     91  77  63 S6        29.86R HX 104
6HR MIN TEMP:  91; 6HR MAX TEMP:  95;

$$

ARZ050-053-066-070-073-230100-
SOUTHWEST ARKANSAS

CITY           SKY/WX    TMP DP  RH WIND       PRES   REMARKS
ARKADELPHIA    FAIR      93  78  61 NW3       29.88S HX 108
6HR MIN TEMP:  92; 6HR MAX TEMP:  96;

CAMDEN         MOSUNNY   93  72  49 CALM      29.87S HX 100
TEXARKANA      SUNNY     92  72  51 S6        29.88S HX  99
6HR MIN TEMP:  91; 6HR MAX TEMP:  95;

EL DORADO      CLOUDY    93  74  53 S7        29.90R HX 103
6HR MIN TEMP:  91; 6HR MAX TEMP:  95;

DE QUEEN       SUNNY     93  73  52 S3        29.85F HX 102
6HR MIN TEMP:  91; 6HR MAX TEMP:  96;

$$

ARZ056-057-069-230100-
SOUTHEAST ARKANSAS

CITY           SKY/WX    TMP DP  RH WIND       PRES   REMARKS
PINE BLUFF     SUNNY     92  74  55 S6        29.88S HX 101
6HR MIN TEMP:  91; 6HR MAX TEMP:  95;

STUTTGART      SUNNY     93  66  40 S7        29.88F HX  96
6HR MIN TEMP:  93; 6HR MAX TEMP:  97;

MONTICELLO     SUNNY     87  78  74 NW3       29.89S HX 100
6HR MIN TEMP:  87; 6HR MAX TEMP:  96;


$$






USA.gov is the U.S. government's official web portal to all federal, state and local government web resources and services.